#timestamp,LO_Frequency,Hit,StdDev 
1507719615.4,286047002.1,N
1507719635.2,286047002.2,N
1507719655.1,286047002.6,N
1507719656.0,286047002.6,N
1507719675.8,286047002.1,N
1507719695.6,286047001.5,N
1507719715.5,286047001.3,N
1507719735.3,286047004.1,N
1507719755.2,286047003.7,N
1507719775.9,286047003.6,N
1507719795.7,286047001.5,N
1507719815.6,286047002.2,N
1507719835.4,286047001.8,N
1507719855.2,286047002.2,N
1507719875.1,286047002.0,N
1507719876.0,286047002.0,N
1507719895.8,286047001.9,N
1507719915.7,286047002.1,N
1507719935.5,286047002.4,N
1507719955.3,286047001.7,N
1507719975.2,286047003.9,Y
1507719995.0,286046999.9,P
1507719995.9,286046999.9,N
1507720015.7,286047000.7,N
1507720035.6,286047000.6,N
1507720055.4,286047000.1,N
1507720075.3,286047002.8,Y
1507720095.1,286047002.8,P
1507720115.8,286047000.2,N
1507720135.7,286047002.7,N
1507720155.5,286047002.5,N
1507720175.4,286047001.8,N
1507720195.2,286047001.5,N
1507720215.0,286047001.5,N
1507720215.9,286047001.5,N
1507720235.8,286047001.3,N
1507720255.6,286047001.3,N
1507720275.4,286047001.9,N
1507720295.3,286047003.9,Y
1507720315.1,286047001.9,P
1507720335.9,286047000.3,N
1507720355.7,286047000.2,N
1507720375.5,286047000.9,N
1507720395.4,286047000.8,N
1507720415.2,286047000.8,N
1507720435.0,286047000.9,N
1507720435.9,286047000.9,N
1507720455.8,286046999.9,N
1507720475.6,286046999.7,N
1507720495.5,286046999.9,N
1507720515.3,286046998.1,N
1507720535.1,286047001.0,N
1507720555.9,286046998.3,N
1507720575.7,286046998.6,N
1507720595.5,286046999.8,N
1507720615.4,286046998.6,N
1507720635.2,286046999.0,N
1507720655.1,286046996.6,Y
1507720656.0,286046996.6,P
1507720675.8,286046996.6,N
1507720695.6,286046999.3,N
1507720715.5,286046999.5,N
1507720735.3,286046998.4,N
1507720755.2,286046996.9,N
1507720775.9,286046999.4,N
1507720795.7,286046999.1,N
1507720815.6,286047001.2,N
1507720835.4,286047001.2,N
1507720855.2,286046998.3,N
1507720875.1,286046999.1,N
1507720876.0,286046999.1,N
1507720895.8,286046999.1,N
1507720915.7,286046999.3,N
1507720935.5,286046998.9,N
1507720955.3,286046999.5,N
1507720975.2,286046999.5,N
1507720995.0,286046999.4,N
1507720995.9,286046999.4,N
1507721015.8,286046998.4,N
1507721035.6,286046996.6,N
1507721055.4,286046996.7,N
1507721075.3,286046996.7,N
1507721095.1,286046994.9,Y
1507721115.9,286046998.6,P
1507721135.7,286046999.4,P
1507721155.5,286046996.6,P
1507721175.4,286046996.8,Y
1507721195.2,286046999.8,P
1507721215.0,286047000.0,N
1507721215.9,286047000.0,N
1507721235.8,286046998.4,N
1507721255.6,286046998.3,N
1507721275.5,286046999.5,N
1507721295.3,286046998.5,N
1507721315.1,286046998.7,N
1507721335.9,286047000.7,N
1507721355.7,286046998.7,N
1507721375.5,286046998.9,N
1507721395.4,286047000.9,N
1507721415.2,286047000.4,N
1507721435.1,286047002.0,N
1507721436.0,286047002.0,N
1507721455.8,286047002.1,N
1507721475.6,286047002.7,N
1507721495.5,286047002.0,N
1507721515.3,286046999.7,N
1507721535.2,286047000.0,N
1507721555.9,286046998.5,N
1507721575.7,286046998.1,N
1507721595.6,286047001.2,N
1507721615.4,286046998.9,N
1507721635.3,286047000.8,N
1507721655.1,286047000.5,N
1507721656.0,286047000.5,N
1507721675.8,286047002.7,N
1507721695.7,286047002.1,N
1507721715.5,286047002.7,N
1507721735.4,286047000.2,N
1507721755.2,286047001.1,N
1507721775.0,286046998.5,N
1507721775.9,286046998.5,N
1507721795.8,286046998.4,N
1507721815.6,286046999.3,N
1507721835.5,286046999.1,N
1507721855.3,286046998.7,N
1507721875.1,286046996.6,N
1507721895.9,286046997.1,N
1507721915.7,286046997.0,N
1507721935.5,286046996.5,N
1507721955.4,286046999.4,N
1507721975.2,286047001.1,N
1507721995.1,286046997.0,N
1507721996.0,286046997.0,N
1507722015.8,286046997.3,N
1507722035.6,286046999.1,N
1507722055.5,286046998.6,N
1507722075.3,286046998.9,N
1507722095.2,286046999.0,N
1507722115.9,286046998.4,N
1507722135.7,286047000.8,N
1507722155.6,286046998.3,N
1507722175.4,286046998.3,N
1507722195.2,286046999.5,N
1507722215.1,286046997.8,N
1507722216.0,286046997.8,N
1507722235.8,286046995.1,Y
1507722255.7,286046999.1,P
1507722275.5,286046996.5,P
1507722295.3,286047001.2,N
1507722315.2,286047001.1,N
1507722335.0,286046999.3,N
1507722335.9,286046999.3,N
1507722355.8,286046998.3,N
1507722375.6,286046998.3,N
1507722395.4,286046999.0,N
1507722415.3,286046998.9,N
1507722435.1,286047000.5,N
1507722455.9,286046998.5,N
1507722475.7,286047000.4,N
1507722495.5,286047002.8,N
1507722515.4,286047000.2,N
1507722535.2,286047000.2,N
1507722555.0,286047001.9,N
1507722555.9,286047001.9,N
1507722575.8,286047001.5,N
1507722595.6,286047001.8,N
1507722615.5,286047004.4,N
1507722635.3,286047002.6,N
1507722655.1,286047000.1,N
1507722675.9,286047000.5,N
1507722695.7,286046998.9,N
1507722715.5,286046998.9,N
1507722735.4,286046998.6,N
1507722755.2,286046998.1,N
1507722775.1,286046996.6,N
1507722776.0,286046996.6,N
1507722795.8,286046999.3,N
1507722815.6,286047000.8,N
1507722835.5,286047001.0,N
1507722855.3,286046998.4,N
1507722875.1,286046998.1,N
1507722895.9,286047000.6,N
1507722915.7,286047002.8,N
1507722935.6,286047000.1,N
1507722955.4,286047001.2,N
1507722975.2,286046998.9,N
1507722995.1,286046998.8,N
1507722996.0,286046998.8,N
1507723015.8,286046998.4,N
1507723035.7,286047001.1,N
1507723055.5,286046999.0,N
1507723075.3,286046998.4,N
1507723095.2,286046998.9,N
1507723115.0,286046998.3,N
1507723115.9,286046998.3,N
1507723135.8,286046998.6,N
1507723155.6,286046999.3,N
1507723175.4,286046999.2,N
1507723195.3,286046998.5,N
